Regional Weather Roundup
Issued by NWS Little Rock, AR

Home | Current Version | Previous Version | Graphics & Text | Print | Product List | Glossary On
Versions: 1 2 3 4 5 6 7 8 9 10 11 12 13 14 15 16 17 18 19 20 21 22 23 24 25 26 27 28 29 30 31
000
ASUS44 KLZK 242205
RWRLZK

WEATHER ROUNDUP FOR ARKANSAS
NATIONAL WEATHER SERVICE LITTLE ROCK AR
400 PM CST SAT FEB 24 2018

NOTE: "FAIR" INDICATES FEW OR NO CLOUDS BELOW 12,000 FEET WITH NO
SIGNIFICANT WEATHER AND/OR OBSTRUCTIONS TO VISIBILITY.

ARZ001-003-010-029-242300-
NORTHWEST ARKANSAS

CITY           SKY/WX    TMP DP  RH WIND       PRES   REMARKS
FAYETTEVILLE   CLOUDY    54  54 100 W10       29.73R
FORT SMITH     CLOUDY    55  52  89 W20       29.77R
HARRISON       CLOUDY    59  58  96 CALM      29.67F
BENTONVILLE    CLOUDY    52  50  93 W14       29.75R
ROGERS         LGT RAIN  51  51 100 W7        29.74R FOG
SILOAM SPGS    CLOUDY    50  49  96 W14G20    29.76R
HIGHFILL       CLOUDY    52  52 100 W10       29.74R
SPRINGDALE     CLOUDY    54  54 100 W12G18    29.74R FOG
$$

ARZ004-005-016-242300-
NORTH CENTRAL ARKANSAS

CITY           SKY/WX    TMP DP  RH WIND       PRES   REMARKS
BATESVILLE     HVY RAIN  67  65  93 SW9       29.67F FOG
FLIPPIN        LGT RAIN  55  55 100 N3        29.66F
MTN HOME       LGT RAIN  55  55 100 S3        29.65F VSB 3/4
$$

ARZ040-041-242300-
WEST CENTRAL ARKANSAS

CITY           SKY/WX    TMP DP  RH WIND       PRES   REMARKS
MENA           CLOUDY    61  59  94 W14G20    29.79R
MOUNT IDA      LGT RAIN  61  60  97 W5        29.73S
$$

ARZ009-017-025-026-028-242300-
NORTHEAST ARKANSAS

CITY           SKY/WX    TMP DP  RH WIND       PRES   REMARKS
JONESBORO      CLOUDY    70  67  90 S20       29.71F
NEWPORT          N/A     67  65  93 S20       29.68F
WALNUT RIDGE   LGT RAIN  66  65  96 S17       29.69S
BLYTHEVILLE    CLOUDY    69  67  93 S15       29.75F
$$

ARZ022-023-033-042-044-242300-
CENTRAL ARKANSAS

CITY           SKY/WX    TMP DP  RH WIND       PRES   REMARKS
LITTLE ROCK    CLOUDY    70  66  87 S24G36    29.68S
N LITTLE ROCK    N/A     68  66  92 W8G22     29.69R
JACKSONVILLE   CLOUDY    71  66  84 S20G35    29.70R
SEARCY         CLOUDY    70  67  90 S23G33    29.66F
HOT SPRINGS    HVY RAIN  63  63 100 SW10      29.77R FOG
RUSSELLVILLE   CLOUDY    60  60 100 W5        29.71S
CLINTON        RAIN      63  61  94 CALM      29.70R
$$

ARZ036-242300-
EAST ARKANSAS

CITY           SKY/WX    TMP DP  RH WIND       PRES   REMARKS
WEST MEMPHIS   LGT RAIN  70  67  90 S22       29.76  FOG
$$

ARZ050-053-066-070-073-242300-
SOUTHWEST ARKANSAS

CITY           SKY/WX    TMP DP  RH WIND       PRES   REMARKS
ARKADELPHIA    TSTM      61  59  93 W12       29.79R FOG
CAMDEN         FAIR      72  64  78 S14       29.76R
TEXARKANA      TSTM      57  56  96 W12       29.84R FOG
EL DORADO      FAIR      73  67  81 S15G23    29.79S
DE QUEEN       CLOUDY    57  57 100 W7        29.80R
$$

ARZ056-057-069-242300-
SOUTHEAST ARKANSAS

CITY           SKY/WX    TMP DP  RH WIND       PRES   REMARKS
PINE BLUFF     LGT RAIN  70  66  87 S17       29.74F
STUTTGART      CLOUDY    71  66  84 S22G28    29.74F
MONTICELLO     FAIR      75  65  70 S14       29.77

$$






USA.gov is the U.S. government's official web portal to all federal, state and local government web resources and services.